www.pogodaiklimat.ru

Погода и климат >> Архив погоды >> Россия >> Хакасия >> Уйбат


ПОГОДА в Уйбате

  • Прогноз погоды в Уйбате
  • Монитор погоды в Уйбате

АРХИВ ПОГОДЫ в Уйбате

Время (UTC), дата Ветер
(напр.,м/с)
 
Видим.   Явления Облачность Т
(С)
Тd
(С)
f
(%)
Тe
(С)
Тes
(С)
Комфортность P
(гПа)
Po
(гПа)
Тmin
(С)
Tmax
(С)
R
(мм)
R24
(мм)
S
(см)
18 10.09 СЗ 1 н/о н/о +8.9 +6.4 84 +8 +8 1015.9 953.8
21 10.09 З 1 н/о н/о +8.7 +6.7 87 +8 +8 1015.6 953.5
00 11.09 СЗ 2 н/о н/о +6.3 +5.8 97 +4 +4 1016.4 953.7 +6.3
03 11.09 ЮЗ 5 н/о н/о +12.0 +7.2 72 +10 +10 1014.3 953.0 +6.3
06 11.09 ЮЗ 5 н/о н/о +13.3 +6.8 65 +11 +11 1013.4 952.4
09 11.09 ЮЗ 6-11
{15}
н/о н/о +13.7 +4.9 55 +12 +12 1011.8 951.0
12 11.09 З 6
{13}
н/о н/о +11.4 +4.6 63 +9 +9 1013.1 951.7 +15.2
15 11.09 З 3 н/о н/о +8.4 +4.2 75 +6 +6 1015.4 953.2
18 11.09 С 1 н/о н/о +6.5 +3.9 83 +5 +5 1017.2 954.5
21 11.09 СЗ 3 н/о н/о +4.9 +2.1 82 +1 +1 1018.8 955.6
00 12.09 СЗ 1 н/о н/о +2.4 +1.9 96 +1 +1 1021.4 957.5 +1.2
03 12.09 С 1 н/о н/о +9.1 +2.2 62 +9 +9 1020.8 958.4
06 12.09 З 8-15
{15}
н/о н/о +10.5 -0.7 46 +7 +7 1020.7 958.5
09 12.09 З 6-10
{15}
н/о н/о +9.4 -1.2 47 +6 +6 1021.1 958.7
12 12.09 ЮЗ 5
{11}
н/о н/о +7.0 -0.7 58 +3 +3 1022.3 959.3 +11.5
15 12.09 З 5
{10}
н/о н/о +6.1 -2.1 56 +2 +2 1022.9 959.7
18 12.09 З 4 н/о н/о +6.1 -1.4 59 +3 +3 1021.4 958.3
21 12.09 ЮЗ 3
{13}
н/о н/о +5.5 +0.3 69 +2 +2 1019.9 956.8
00 13.09 Ю 3 н/о н/о +6.2 +0.7 68 +3 +3 1017.7 954.8 +5.1
03 13.09 ЮЗ 3 н/о н/о +8.4 +1.0 60 +6 +6 1016.1 953.8
06 13.09 З 6-13
{14}
н/о н/о +11.0 -1.0 43 +8 +8 1013.9 952.3
09 13.09 З 7-11
{13}
н/о н/о +11.7 -0.0 44 +9 +9 1012.9 951.5
12 13.09 З 4
{13}
н/о н/о +9.6 +3.3 65 +7 +7 1013.2 951.4 +12.9
15 13.09 С 2 н/о н/о +7.0 +5.9 93 +5 +5 1015.0 952.5
18 13.09 СЗ 2 н/о н/о +6.1 +5.6 97 +3 +3 1016.2 953.5
21 13.09 С 2 н/о н/о +3.8 +3.2 96 +1 +1 1018.2 954.8
00 14.09 С 2 н/о н/о +3.9 +2.0 87 +1 +1 1020.5 956.9 +3.2 2
03 14.09 ЮВ 2 н/о н/о +5.8 +2.8 81 +3 +3 1021.1 958.0
06 14.09 В 2 н/о н/о +9.2 +2.4 62 +8 +8 1019.6 957.3
09 14.09 В 2 н/о н/о +11.2 +3.0 57 +10 +10 1018.4 956.6
12 14.09 штиль 0 н/о н/о +8.7 +5.3 79 +8 +8 1018.3 956.0 +11.2
15 14.09 З 1 н/о н/о +8.6 +4.0 73 +8 +8 1018.2 955.9
18 14.09 штиль 0 н/о н/о +8.5 +2.8 67 +8 +8 1017.7 955.4
21 14.09 штиль 0 н/о н/о +6.9 +5.4 90 +6 +6 1017.4 954.8
00 15.09 Ю 2 н/о н/о +9.8 +6.7 81 +8 +8 1015.5 953.6 +6.7
03 15.09 З 5 н/о н/о +13.5 +6.2 61 +12 +12 1014.6 953.6
06 15.09 З 5-12
{14}
н/о н/о +14.7 +5.6 54 +13 +13 1014.1 953.3
09 15.09 З 7-10
{14}
н/о н/о +14.9 +6.2 56 +13 +13 1014.5 953.7
12 15.09 З 3
{11}
н/о н/о +13.1 +6.8 66 +12 +12 1015.3 954.1 +16.3
15 15.09 З 3 н/о н/о +13.1 +6.8 66 +12 +12 1015.3 954.7
18 15.09 СЗ 1 н/о н/о +9.9 +7.9 87 +9 +9 1016.6 954.7
21 15.09 СЗ 1 н/о н/о +9.3 +8.6 95 +9 +9 1017.8 955.7
00 16.09 СЗ 3 н/о н/о +9.1 +8.5 96 +6 +6 1019.8 957.5 +8.6
03 16.09 ЮВ 1 н/о н/о +14.5 +8.3 66 +15 +15 1020.0 958.8
06 16.09 СЗ 2 н/о н/о +17.1 +4.6 44 +17 +17 1019.2 958.6
09 16.09 Ю 3 н/о н/о +18.8 +7.4 47 +19 +19 1018.4 958.2
12 16.09 В 3 н/о н/о +14.9 +8.3 65 +14 +14 1019.2 958.2 +19.6
15 16.09 С 1 н/о н/о +8.3 +6.9 91 +7 +7 1021.6 959.0
18 16.09 СЗ 3 н/о н/о +4.9 +4.6 98 +1 +1 1022.1 958.7
21 16.09 СЗ 5 н/о н/о +2.8 +2.5 98 -3 -3 1021.7 957.9
00 17.09 СЗ 4 н/о н/о +4.2 +3.7 97 -0 -0 1021.1 957.6 +2.7
03 17.09 СЗ 3 н/о н/о +7.9 +6.6 91 +5 +5 1020.2 957.6
06 17.09 В 2 н/о н/о +15.8 +9.2 65 +16 +16 1017.1 956.4
09 17.09 ЮВ 2 н/о н/о +19.1 +10.0 56 +20 +20 1015.4 955.5
12 17.09 штиль 0 н/о н/о +14.0 +11.0 82 +14 +14 1017.3 956.3 +19.1
15 17.09 З 1 н/о н/о +8.6 +7.8 95 +8 +8 1019.8 957.4

 

Местоположение метеостанции Уйбат (Хакасия, Россия): широта 53.72 долгота 90.37 высота над уровнем моря 525 м.

В архиве по умолчанию представлена погода в Уйбате за последнюю неделю. Архивные данные за месяц целиком и за предыдущие месяцы, начиная с января 2011 года, Вы можете получить, выбрав интересующий диапазон дат из раскрывающегося списка и нажав кнопку "Ввод!".


*Определитесь, кто Вы:
робот инопланетянин человек

Внимание! Время в таблицах - всемирное. Для получения местного времени необходимо прибавить поправку, которая равна 7 ч.

Смотрите также архив погоды в соседних городах и на ближайших метеорологических станциях:

Погода в Хакасской (Хакасия, Россия) (63 км)
Погода в Аскизе (Хакасия, Россия) (66 км)
Погода в Бее (Хакасия, Россия) (83 км)
Погода в Минусинске (Красноярский край, Россия) (88 км)
Погода в Шире (Хакасия, Россия) (91 км)
Погода в Лебяжьем (Красноярский край, Россия) (95 км)
Погода в Коммунаре (Хакасия, Россия) (98 км)
Погода в Саяногорске (Хакасия, Россия) (98 км)
Погода в Неожиданном (Хакасия, Россия) (99 км)
Погода в Первомайском (Хакасия, Россия) (101 км)

Пояснения к столбцам:

Ветер - указаны скорость ветра в м/с - средняя за 10 мин, порывы в срок и между сроками (в фигурных скобках) и направление, откуда дует ветер: С - северный, СВ - северо-восточный, В - восточный, ЮВ - юго-восточный, Ю - южный, ЮЗ - юго-западный, З - западный, СЗ - северо-западный.
Видимость - горизонтальная дальность видимости в метрах или километрах. При видимости от 1 до 10 км при отсутствии осадков обычно наблюдается дымка, при ухудшении видимости до 1 км и менее - туман. В сухую погоду видимость может ухудшаться дымом, пылью или мглою.
Явления - указаны атмосферные явления, наблюдавшиеся в срок или в последний час перед сроком; фигурными скобками обозначены явления, наблюдавшиеся между сроками (за 1-3 часа до срока); квадратными скобками обозначены град или гололедные отложения с указанием их диаметра в мм.
Облачность - указаны через наклонную черту общая и нижняя облачность в баллах и высота нижней границы облаков в метрах; квадратными скобками обозначены формы облаков: Ci - перистые, Cs - перисто-слоистые, Cc - перисто-кучевые, Ac - высококучевые, As - высокослоистые, Sc - слоисто-кучевые, Ns - слоисто-дождевые, Cu - кучевые, Cb - кучево-дождевые. Подробнее классификацию облаков см. в Атласе облаков (PDF).
T - Температура воздуха - температура, измеренная на высоте 2 м над землей.
Td - Температура точки росы - температура, при понижении до которой содержащийся в воздухе водяной пар достигнет насыщения.
f - Относительная влажность воздуха - влажноcть воздуха, измеренная на высоте 2 м над землей.
Te - Эффективная температура - температура, которую ощущает одетый по сезону человек в тени. Характеристика душности погоды. При расчете учитывается влияние влажности воздуха и скорости ветра на теплоощущения человека.
Tes - Эффективная температура на солнце - температура, которую ощущает человек, с поправкой на солнечный нагрев. Характеристика знойности погоды. Зависит от высоты солнца над горизонтом, облачности и скорости ветра. Ночью, в пасмурную погоду, а также при ветре 12 м/с и более поправка равна нулю.
P - Атмосферное давление - приведенное к уровню моря атмосферное давление.
Po - Атмосферное давление - измеренное на уровне метеостанции атмосферное давление.
Tmin - Минимальная температура - минимум температуры воздуха на высоте 2 м над землей.
Tmax - Максимальная температура - максимум температуры воздуха на высоте 2 м над землей.
R - Количество осадков - Количество выпавших осадков за период времени, мм. При наведении курсора мыши на число - период времени, за который выпало указанное количество осадков.
R24 - Количество осадков - Количество выпавших осадков за 24 часа, мм.
S - Снежный покров - Высота снежного покрова, см. При наведении курсора мыши на число - состояние снежного покрова и степень покрытия местности в баллах.